logo liguriameteo

Diretta Meteo Bari-Palese Macchie, Italiavenerdì 14 giugno ore 18:20

Mappa
Sereno 24 °C Sereno 24 Ore: T.min 17 T.max 27
Ponente Nord Km/h 13 Punto di rugiada: 14 °C Umidità: 53% Visibilità: 10 Km
Il sole sorge alle: 05:18 Il sole tramonta alle: 20:28
14 Giugno 2024 18:20 tempo osservato: Sereno Sereno 24 53 1016 vento: Nord N 13
14 Giugno 2024 17:50 tempo osservato: Sereno Sereno 24 57 1016 vento: Nord N/NE 14.8
14 Giugno 2024 17:20 tempo osservato: Sereno Sereno 24 53 1016 vento: Nord N 16.7
14 Giugno 2024 16:50 tempo osservato: Sereno Sereno 24 57 1016 vento: Nord N 16.7
14 Giugno 2024 16:20 tempo osservato: Sereno Sereno 24 57 1017 vento: Nord N 16.7
14 Giugno 2024 15:50 tempo osservato: Sereno Sereno 24 60 1017 vento: Nord N 16.7
14 Giugno 2024 15:20 tempo osservato: Sereno Sereno 24 57 1016 vento: Nord N 14.8
14 Giugno 2024 14:50 tempo osservato: Sereno Sereno 25 53 1017 vento: Nord N 14.8
14 Giugno 2024 14:20 tempo osservato: Sereno Sereno 25 50 1017 vento: Nord N 16.7
14 Giugno 2024 13:50 tempo osservato: Sereno Sereno 25 47 1017 vento: Nord N 14.8
14 Giugno 2024 13:20 tempo osservato: Sereno Sereno 25 44 1017 vento: Nord N 14.8
14 Giugno 2024 12:50 tempo osservato: Sereno Sereno 25 44 1017 vento: Nord N/NO 16.7
14 Giugno 2024 12:20 tempo osservato: Sereno Sereno 25 47 1017 vento: Nord N/NO 18.5
14 Giugno 2024 11:50 tempo osservato: Sereno Sereno 24 47 1017 vento: Nord NO 18.5
14 Giugno 2024 11:20 tempo osservato: Sereno Sereno 24 50 1017 vento: Nord NO 20.3
14 Giugno 2024 10:50 tempo osservato: Sereno Sereno 24 50 1017 vento: Nord NO 18.5
14 Giugno 2024 10:20 tempo osservato: Sereno Sereno 23 53 1017 vento: Nord N/NO 18.5
14 Giugno 2024 09:50 tempo osservato: Sereno Sereno 24 50 1017 vento: Nord NO 16.7
14 Giugno 2024 09:20 tempo osservato: Sereno Sereno 23 53 1016 vento: Nord NO 18.5
14 Giugno 2024 08:50 tempo osservato: Sereno Sereno 23 49 1016 vento: Nord O/NO 16.7
14 Giugno 2024 08:20 tempo osservato: Sereno Sereno 22 53 1016 vento: Nord NO 16.7
14 Giugno 2024 07:50 tempo osservato: Sereno Sereno 21 56 1016 vento: Nord O/NO 14.8
14 Giugno 2024 07:20 tempo osservato: Sereno Sereno 20 59 1016 vento: Nord O 14.8
14 Giugno 2024 06:50 tempo osservato: Sereno Sereno 19 59 1016 vento: Nord O/NO 11.1
14 Giugno 2024 06:20 tempo osservato: Sereno Sereno 18 59 1016 vento: Nord O 11.1
14 Giugno 2024 05:50 tempo osservato: Sereno Sereno 17 63 1016 vento: Nord O 7.4
14 Giugno 2024 05:20 tempo osservato: Sereno Sereno 18 59 1016 vento: Nord O 11.1
14 Giugno 2024 04:50 tempo osservato: Sereno Sereno 18 63 1015 vento: Nord O 13
14 Giugno 2024 04:20 tempo osservato: Sereno Sereno 18 67 1015 vento: Nord O 11.1
14 Giugno 2024 03:50 tempo osservato: Sereno Sereno 17 72 1015 vento: Nord O 9.3
14 Giugno 2024 03:20 tempo osservato: Sereno Sereno 17 77 1015 vento: Nord O/NO 11.1
14 Giugno 2024 02:50 tempo osservato: Sereno Sereno 17 82 1016 vento: Nord N 5.5
14 Giugno 2024 02:20 tempo osservato: Sereno Sereno 17 82 1016 vento: Nord O 7.4
14 Giugno 2024 01:50 tempo osservato: Sereno Sereno 18 77 1016 vento: Nord O/SO 13
14 Giugno 2024 01:20 tempo osservato: Sereno Sereno 18 82 1016 vento: Nord O 13
14 Giugno 2024 00:50 tempo osservato: Sereno Sereno 18 82 1016 vento: Nord O/SO 9.3
13 Giugno 2024 23:50 tempo osservato: Sereno Sereno 20 72 1016 vento: Nord O/NO 11.1
13 Giugno 2024 23:20 tempo osservato: Poco Nuvoloso Poco Nuvoloso 20 72 1016 vento: Nord O/NO 18.5
13 Giugno 2024 22:50 tempo osservato: Poco Nuvoloso Poco Nuvoloso 21 73 1016 vento: Nord NO 20.3
13 Giugno 2024 22:20 tempo osservato: Poco Nuvoloso Poco Nuvoloso 21 73 1015 vento: Nord N/NO 24
13 Giugno 2024 21:50 tempo osservato: Poco Nuvoloso Poco Nuvoloso 22 78 1015 vento: Nord N/NO 24
13 Giugno 2024 21:20 tempo osservato: Poco Nuvoloso Poco Nuvoloso 22 78 1014 vento: Nord N/NO 16.7
13 Giugno 2024 20:50 tempo osservato: Poco Nuvoloso Poco Nuvoloso 24 69 1013 vento: Nord NO 11.1
13 Giugno 2024 20:20 tempo osservato: Poco Nuvoloso Poco Nuvoloso 25 65 1013 vento: Nord N 5.5
13 Giugno 2024 19:50 tempo osservato: Temporale nelle vicinanze Temporale nelle vicinanze 24 73 1013 vento: Nord N/NE 7.4
13 Giugno 2024 19:20 tempo osservato: Temporale nelle vicinanze Temporale nelle vicinanze 24 78 1013 vento: Nord N/NO 9.3
13 Giugno 2024 18:50 tempo osservato: Pioviggine Pioviggine 27 54 1011 vento: Nord E 14.8